Погода в Кочерове

Украина / Житомирская область     50°21′18″N   29°20′45″E
темп.,
°C
ветер,
м/с
пор.,
м/с
влажн.,
%
обл.,
%
осадки,
мм/ч
давл.,
гПа
погр.,
м
18 мая, ср
ср1800:00+6сз412565 0.0 1016346
03:00+4ссз411744 0.0 1016292
06:00+3ссз511907 0.0 1017460
09:00+6ссз61078100 0.0 10191073
12:00+5ссз51196100 0.6 1021873
15:00+9ссз71177100 0.8 10211183
18:00+9с6117695 0.2 1022999
21:00+9ссз61271100 0.2 1024680
19 мая, чт
чт1900:00+8сз410733 0.0 1025392
03:00+5сз412865 0.0 1026252
06:00+4зсз39915 0.0 1026205
09:00+12сз586399 0.0 1026631
12:00+16сз574926 0.0 10261441
15:00+18сз674346 0.0 10241723
18:00+17зсз5849100 0.0 10231317
21:00+12зсз387692 0.0 1024141
20 мая, пт
пт2000:00+9зсз368371 0.0 1024101
03:00+8з3585100 0.0 102371
06:00+8з35845 0.0 102397
09:00+15з3658100 0.0 1022396
12:00+19зюз5647100 0.0 10201041
15:00+19зюз5958100 0.0 10181087
18:00+20з7115738 0.0 10151424
21:00+16зюз514715 0.0 1013551
21 мая, сб
сб2100:00+16з61483100 0.0 1011673
03:00+14зсз71382100 0.0 1010879
06:00+12сз81275100 0.0 10101077
09:00+11ссз71184100 0.0 1012894
12:00+11с5680100 0.0 1014784
15:00+14с3366100 0.1 10141092
18:00+13в3369100 0.0 1013708
21:00+10юв4886100 0.1 1012252
22 мая, вс
вс2200:00+9ююв41096100 5.0 1010493
03:00+10ю4897100 9.3 1009457
06:00+10зсз5119535 0.1 1008487
09:00+12зсз5787100 0.2 1008684
12:00+11з4790100 1.0 1008540
15:00+11сз2492100 1.4 1008410
18:00+12с238370 0.1 1009555
21:00+9в479692 0.4 1011299